FYI1648 LICA-LICC

Flight info

Callsign FYI1648
Flight time 0h 33m
Altitude 27000
Route PEROS L869 PELEN Q789 UXUTA
Aircraft A320/M-SDE3FGHIRWY/LB1

Departure

Time 2026-04-21 16:37
Airport Lamezia Terme Sant'Eufemia International Airport (LICA)

Arrival

Time 2026-04-21 17:10
Airport Catania-Fontanarossa Airport (LICC)
Time Latitude Longitude Altitude Speed Heading
2026-04-21 16:27 38.90885 16.24373 32 ft 0 kts 54°
2026-04-21 16:32 38.90888 16.24380 30 ft 4 kts 61°
2026-04-21 16:32 38.90877 16.24397 32 ft 2 kts 167°
2026-04-21 16:32 38.90836 16.24381 32 ft 8 kts 180°
2026-04-21 16:32 38.90811 16.24446 31 ft 16 kts 99°
2026-04-21 16:33 38.90767 16.24579 32 ft 16 kts 142°
2026-04-21 16:33 38.90709 16.24700 32 ft 17 kts 99°
2026-04-21 16:33 38.90691 16.24852 32 ft 20 kts 99°
2026-04-21 16:33 38.90666 16.25066 33 ft 26 kts 97°
2026-04-21 16:34 38.90639 16.25297 33 ft 27 kts 99°
2026-04-21 16:34 38.90612 16.25541 33 ft 28 kts 98°
2026-04-21 16:34 38.90582 16.25795 32 ft 29 kts 99°
2026-04-21 16:34 38.90553 16.26043 34 ft 23 kts 99°
2026-04-21 16:35 38.90535 16.26181 30 ft 13 kts 99°
2026-04-21 16:35 38.90510 16.26281 33 ft 11 kts 129°
2026-04-21 16:35 38.90444 16.26306 32 ft 11 kts 188°
2026-04-21 16:35 38.90354 16.26285 33 ft 14 kts 197°
2026-04-21 16:36 38.90313 16.26189 34 ft 14 kts 272°
2026-04-21 16:36 38.90318 16.26136 34 ft 0 kts 278°
2026-04-21 16:36 38.90332 16.26014 31 ft 48 kts 278°
2026-04-21 16:36 38.90414 16.25294 34 ft 112 kts 278°
2026-04-21 16:37 38.90558 16.24077 33 ft 161 kts 279°
2026-04-21 16:37 38.90723 16.22632 576 ft 162 kts 277°
2026-04-21 16:37 38.90898 16.21201 1267 ft 162 kts 276°
2026-04-21 16:37 38.91075 16.19750 1868 ft 175 kts 280°
2026-04-21 16:38 38.91264 16.18107 2200 ft 197 kts 279°
2026-04-21 16:38 38.91467 16.16250 2437 ft 224 kts 279°
2026-04-21 16:38 38.91691 16.14152 2809 ft 249 kts 275°
2026-04-21 16:38 38.91373 16.11958 3610 ft 259 kts 242°
2026-04-21 16:39 38.90113 16.10246 4380 ft 271 kts 218°
2026-04-21 16:39 38.88620 16.08792 5357 ft 269 kts 221°
2026-04-21 16:39 38.87165 16.07268 6280 ft 271 kts 223°
2026-04-21 16:39 38.85722 16.05701 7139 ft 273 kts 224°
2026-04-21 16:40 38.84275 16.04115 7989 ft 275 kts 224°
2026-04-21 16:40 38.82814 16.02516 8854 ft 277 kts 224°
2026-04-21 16:40 38.81337 16.00910 9713 ft 280 kts 224°
2026-04-21 16:40 38.79837 15.99287 10373 ft 289 kts 224°
2026-04-21 16:41 38.78796 15.98160 10543 ft 304 kts 224°
2026-04-21 16:41 38.76531 15.95712 10949 ft 330 kts 224°
2026-04-21 16:41 38.74755 15.93806 11582 ft 336 kts 224°
2026-04-21 16:41 38.72951 15.91877 12306 ft 339 kts 224°
2026-04-21 16:42 38.71128 15.89933 13028 ft 342 kts 224°
2026-04-21 16:42 38.69289 15.87970 13690 ft 347 kts 224°
2026-04-21 16:42 38.67430 15.85977 14311 ft 350 kts 224°
2026-04-21 16:42 38.65610 15.83895 14897 ft 351 kts 231°
2026-04-21 16:43 38.64130 15.81425 15488 ft 350 kts 243°
2026-04-21 16:43 38.63085 15.78626 16091 ft 349 kts 254°
2026-04-21 16:43 38.62423 15.75641 16688 ft 351 kts 258°
2026-04-21 16:43 38.61798 15.72613 17291 ft 354 kts 258°
2026-04-21 16:44 38.61166 15.69558 17886 ft 357 kts 258°
2026-04-21 16:44 38.60526 15.66473 18432 ft 361 kts 258°
2026-04-21 16:44 38.59878 15.63364 18936 ft 363 kts 258°
2026-04-21 16:44 38.59221 15.60232 19450 ft 366 kts 258°
2026-04-21 16:45 38.58558 15.57080 19958 ft 369 kts 258°
2026-04-21 16:45 38.57891 15.53902 20465 ft 371 kts 258°
2026-04-21 16:45 38.57216 15.50708 20955 ft 374 kts 258°
2026-04-21 16:45 38.56499 15.47499 21442 ft 377 kts 257°
2026-04-21 16:46 38.55751 15.44273 21927 ft 380 kts 257°
2026-04-21 16:46 38.54990 15.41030 22373 ft 383 kts 256°
2026-04-21 16:46 38.54232 15.37761 22851 ft 385 kts 257°
2026-04-21 16:46 38.53492 15.34472 23320 ft 387 kts 257°
2026-04-21 16:47 38.52760 15.31152 23733 ft 389 kts 258°
2026-04-21 16:47 38.52029 15.27814 24132 ft 391 kts 258°
2026-04-21 16:47 38.51304 15.24513 24542 ft 392 kts 258°
2026-04-21 16:47 38.50567 15.21162 24947 ft 393 kts 258°
2026-04-21 16:48 38.49827 15.17799 25343 ft 394 kts 258°
2026-04-21 16:48 38.49081 15.14427 25731 ft 395 kts 258°
2026-04-21 16:48 38.48330 15.11049 26124 ft 396 kts 258°
2026-04-21 16:48 38.47578 15.07664 26508 ft 397 kts 258°
2026-04-21 16:49 38.46822 15.04264 26843 ft 399 kts 258°
2026-04-21 16:49 38.46064 15.00878 26923 ft 392 kts 258°
2026-04-21 16:49 38.45317 14.97572 26935 ft 385 kts 258°
2026-04-21 16:49 38.44577 14.94308 26930 ft 382 kts 258°
2026-04-21 16:50 38.43842 14.91055 26929 ft 381 kts 258°
2026-04-21 16:50 38.43111 14.87812 26930 ft 381 kts 258°
2026-04-21 16:50 38.42383 14.84564 26935 ft 380 kts 258°
2026-04-21 16:50 38.41660 14.81324 26933 ft 380 kts 258°
2026-04-21 16:51 38.40932 14.78081 26918 ft 380 kts 258°
2026-04-21 16:51 38.40199 14.74838 26939 ft 380 kts 258°
2026-04-21 16:51 38.39464 14.71599 26938 ft 381 kts 257°
2026-04-21 16:51 38.38725 14.68360 26933 ft 380 kts 257°
2026-04-21 16:52 38.37982 14.65126 26926 ft 380 kts 257°
2026-04-21 16:52 38.37239 14.61892 26931 ft 380 kts 257°
2026-04-21 16:52 38.36739 14.59708 26930 ft 380 kts 257°
2026-04-21 16:52 38.35632 14.55476 26928 ft 384 kts 248°
2026-04-21 16:53 38.34076 14.52674 26924 ft 395 kts 230°
2026-04-21 16:53 38.31815 14.50621 26901 ft 408 kts 210°
2026-04-21 16:53 38.29051 14.49733 26654 ft 418 kts 187°
2026-04-21 16:53 38.26149 14.50211 26221 ft 426 kts 168°
2026-04-21 16:54 38.23380 14.51602 25623 ft 430 kts 157°
2026-04-21 16:54 38.20697 14.53275 25014 ft 429 kts 158°
2026-04-21 16:54 38.17984 14.54836 24432 ft 427 kts 160°
2026-04-21 16:54 38.15261 14.56345 23857 ft 426 kts 160°
2026-04-21 16:55 38.12544 14.57853 23227 ft 426 kts 159°
2026-04-21 16:55 38.09836 14.59383 22616 ft 424 kts 159°
2026-04-21 16:55 38.07159 14.60933 22025 ft 422 kts 158°
2026-04-21 16:55 38.04495 14.62503 21448 ft 421 kts 158°
2026-04-21 16:56 38.01845 14.64079 20850 ft 421 kts 158°
2026-04-21 16:56 37.99195 14.65656 20316 ft 418 kts 158°
2026-04-21 16:56 37.96568 14.67208 19705 ft 414 kts 159°
2026-04-21 16:56 37.93900 14.68358 19038 ft 399 kts 170°
2026-04-21 16:57 37.91215 14.68871 18502 ft 382 kts 181°
2026-04-21 16:57 37.89486 14.68809 18172 ft 371 kts 191°
2026-04-21 16:57 37.87041 14.68024 17659 ft 358 kts 207°
2026-04-21 16:57 37.84878 14.66549 16900 ft 352 kts 219°
2026-04-21 16:58 37.83125 14.64457 15954 ft 344 kts 237°
2026-04-21 16:58 37.81963 14.61855 15059 ft 338 kts 247°
2026-04-21 16:58 37.80951 14.59185 14196 ft 336 kts 247°
2026-04-21 16:58 37.79963 14.56535 13530 ft 328 kts 247°
2026-04-21 16:59 37.79006 14.53969 13075 ft 318 kts 247°
2026-04-21 16:59 37.78064 14.51458 12646 ft 315 kts 247°
2026-04-21 16:59 37.77047 14.49017 12229 ft 315 kts 237°
2026-04-21 16:59 37.75512 14.47022 11755 ft 322 kts 219°
2026-04-21 17:00 37.73490 14.45770 11277 ft 329 kts 199°
2026-04-21 17:00 37.71209 14.45478 11014 ft 330 kts 179°
2026-04-21 17:00 37.68963 14.45736 10889 ft 319 kts 178°
2026-04-21 17:00 37.66787 14.45983 10764 ft 309 kts 179°
2026-04-21 17:01 37.64686 14.46217 10641 ft 298 kts 179°
2026-04-21 17:01 37.62671 14.46695 10515 ft 293 kts 164°
2026-04-21 17:01 37.60853 14.47827 10264 ft 293 kts 148°
2026-04-21 17:01 37.59250 14.49439 9928 ft 293 kts 142°
2026-04-21 17:02 37.57684 14.51072 9612 ft 292 kts 142°
2026-04-21 17:02 37.56123 14.52696 9283 ft 290 kts 142°
2026-04-21 17:02 37.54569 14.54306 8966 ft 288 kts 142°
2026-04-21 17:02 37.53027 14.55901 8654 ft 286 kts 142°
2026-04-21 17:03 37.51502 14.57478 8215 ft 282 kts 142°
2026-04-21 17:03 37.49992 14.59037 7652 ft 279 kts 142°
2026-04-21 17:03 37.48500 14.60578 7141 ft 275 kts 142°
2026-04-21 17:03 37.47028 14.62098 6610 ft 272 kts 142°
2026-04-21 17:04 37.45567 14.63605 6056 ft 270 kts 141°
2026-04-21 17:04 37.44319 14.65338 5520 ft 267 kts 121°
2026-04-21 17:04 37.43612 14.67467 5005 ft 262 kts 99°
2026-04-21 17:04 37.43501 14.69653 4859 ft 240 kts 82°
2026-04-21 17:05 37.43673 14.71666 4594 ft 228 kts 81°
2026-04-21 17:05 37.43844 14.73625 4293 ft 220 kts 81°
2026-04-21 17:05 37.44007 14.75491 4146 ft 212 kts 82°
2026-04-21 17:05 37.44166 14.77320 3992 ft 209 kts 82°
2026-04-21 17:06 37.44321 14.79107 3911 ft 203 kts 82°
2026-04-21 17:06 37.44476 14.80883 3760 ft 205 kts 82°
2026-04-21 17:06 37.44631 14.82673 3517 ft 207 kts 83°
2026-04-21 17:06 37.44787 14.84480 3256 ft 210 kts 83°
2026-04-21 17:07 37.44946 14.86322 2978 ft 213 kts 82°
2026-04-21 17:07 37.45104 14.88162 2720 ft 211 kts 83°
2026-04-21 17:07 37.45260 14.89982 2429 ft 208 kts 84°
2026-04-21 17:07 37.45415 14.91778 2144 ft 205 kts 85°
2026-04-21 17:08 37.45565 14.93542 1878 ft 200 kts 84°
2026-04-21 17:08 37.45709 14.95224 1635 ft 186 kts 83°
2026-04-21 17:08 37.45843 14.96790 1395 ft 174 kts 84°
2026-04-21 17:08 37.45968 14.98255 1172 ft 164 kts 85°
2026-04-21 17:09 37.46209 15.01088 760 ft 152 kts 83°
2026-04-21 17:09 37.46316 15.02361 544 ft 143 kts 82°
2026-04-21 17:09 37.46416 15.03582 364 ft 139 kts 83°
2026-04-21 17:10 37.46517 15.04777 194 ft 136 kts 82°
2026-04-21 17:10 37.46617 15.05945 56 ft 128 kts 82°
2026-04-21 17:10 37.46700 15.06889 52 ft 85 kts 83°
2026-04-21 17:10 37.46743 15.07410 52 ft 37 kts 84°
2026-04-21 17:11 37.46808 15.07687 53 ft 28 kts 58°
2026-04-21 17:11 37.46887 15.07803 52 ft 12 kts 18°
2026-04-21 17:11 37.46936 15.07744 52 ft 11 kts 268°
2026-04-21 17:11 37.46929 15.07654 52 ft 10 kts 264°
2026-04-21 17:12 37.46922 15.07571 49 ft 10 kts 264°
2026-04-21 17:12 37.46916 15.07490 51 ft 9 kts 264°
2026-04-21 17:12 37.46906 15.07373 51 ft 14 kts 264°
2026-04-21 17:12 37.46893 15.07214 49 ft 20 kts 264°
2026-04-21 17:13 37.46879 15.07051 49 ft 18 kts 263°
2026-04-21 17:13 37.46866 15.06902 51 ft 16 kts 264°
2026-04-21 17:13 37.46854 15.06768 51 ft 15 kts 264°
2026-04-21 17:13 37.46844 15.06646 51 ft 13 kts 264°
2026-04-21 17:14 37.46835 15.06538 51 ft 11 kts 264°
2026-04-21 17:14 37.46854 15.06488 51 ft 6 kts 348°
2026-04-21 17:14 37.46885 15.06500 51 ft 4 kts 19°
2026-04-21 17:14 37.46928 15.06518 51 ft 7 kts 19°
2026-04-21 17:15 37.46943 15.06525 51 ft 1 kts 19°
2026-04-21 17:15 37.46946 15.06526 51 ft 0 kts 19°
2026-04-21 17:15 37.46947 15.06527 51 ft 0 kts 19°